Overview Statistics Trail Chart Weather Telemetry Raw packets
 

This is the latest recevied weather packets stored in our database for station/object IU5GBO-13. If no packets are shown the sender has not sent any weather packets the latest 10 day(s).

<< 4 5 6 7 8 9 10 >>
Time Temp. Humidity Pressure Rain* Wind** Luminosity Snow
1777976779 21.67° C 65% 1015.4 hPa - - - -
1777976179 22.22° C 64% 1015.4 hPa - - - -
1777975578 22.78° C 64% 1015.4 hPa - - - -
1777974978 21.67° C 66% 1015.3 hPa - - - -
1777974379 21.11° C 69% 1015.4 hPa - - - -
1777973779 20.56° C 71% 1015.4 hPa - - - -
1777973179 20° C 73% 1015.4 hPa - - - -
1777972578 18.89° C 77% 1015.4 hPa - - - -
1777971979 18.33° C 79% 1015.5 hPa - - - -
1777971379 18.33° C 80% 1015.3 hPa - - - -
1777970779 17.78° C 82% 1015.4 hPa - - - -
1777970179 17.22° C 82% 1015.4 hPa - - - -
1777969578 17.22° C 83% 1015.2 hPa - - - -
1777968979 17.78° C 84% 1015.1 hPa - - - -
1777968454 17.78° C 84% 1015.1 hPa - - - -
1777967778 17.22° C 85% 1015.2 hPa - - - -
1777967241 17.22° C 85% 1015.3 hPa - - - -
1777965978 17.22° C 85% 1015.3 hPa - - - -
1777965382 17.22° C 86% 1015.3 hPa - - - -
1777964822 16.67° C 86% 1015.1 hPa - - - -
1777964815 16.67° C 86% 1015.2 hPa - - - -
1777963578 16.67° C 86% 1015.3 hPa - - - -
1777962979 16.67° C 87% 1015.3 hPa - - - -
1777962378 16.67° C 87% 1015.2 hPa - - - -
1777961778 16.67° C 87% 1015.2 hPa - - - -

* Rain since midnight (hover to see other rain measurements)
** Current wind speed in m/s (hover to see current wind gust speed)